Regional Weather Roundup
Issued by NWS

Home | Current Version | Previous Version | Graphics & Text | Print | Product List | Glossary On
Versions: 1 2 3 4 5 6 7 8 9 10 11 12 13 14 15 16 17 18 19 20 21 22 23 24 25 26 27 28 29 30 31 32 33 34 35 36 37 38 39 40 41 42 43 44 45 46 47 48 49 50
000
ASUS43 KMPX 280610
RWRMN
WEATHER ROUNDUP FOR MINNESOTA
NATIONAL WEATHER SERVICE TWIN CITIES/CHANHASSEN MN
100 AM CDT TUE APR 28 2015


NOTE: "FAIR" INDICATES FEW OR NO CLOUDS BELOW 12,000 FEET WITH NO
SIGNIFICANT WEATHER AND/OR OBSTRUCTIONS TO VISIBILITY. N/A MEANS
CURRENT SKY AND/OR WEATHER CONDITIONS ARE NOT AVAILABLE.

MNZ060>063-068>070-280700-
   Twin Cities Metro

CITY           SKY/WX    TMP DP  RH WIND       PRES   REMARKS
TWIN CITIES    MOCLDY    52  37  56 CALM      30.15R
6HR MIN TEMP:  52; 6HR MAX TEMP:  68;

ST PAUL        CLEAR     47  35  63 CALM      30.15S
CRYSTAL        CLEAR     47  30  51 CALM      30.14R
BLAINE         PTCLDY    45  32  61 CALM      30.14R
LAKEVILLE      CLEAR     39  34  81 CALM      30.15S
EDEN PRAIRIE   PTCLDY    51  29  42 SW3       30.14R
6HR MIN TEMP:  48; 6HR MAX TEMP:  67;

SOUTH ST PAUL  CLEAR     47  33  59 CALM      30.15R
LAKE ELMO      FAIR      41  32  70 CALM      30.16R
$$
MNZ001>005-007-008-013>017-022>024-027-028-280700-
   Northwest Minnesota

CITY           SKY/WX    TMP DP  RH WIND       PRES   REMARKS
BEMIDJI        MOCLDY    52  43  71 NW12      30.18S
HALLOCK        FOG       39  37  93 N3        30.26S VSB 1/4
ROSEAU         DRIZZLE   46  41  81 NW6       30.24R
WARROAD        DRIZZLE   45  41  87 NW3       30.24R
THIEF RVR FALL CLOUDY    45  43  93 NW9       30.24S
CROOKSTON      LGT RAIN  45  45 100 N12       30.26R
FOSSTON        CLOUDY    46  39  76 N8        30.22S
DETROIT LAKES  CLOUDY    50  43  76 N15       30.21S
MOORHEAD       RAIN      48  43  81 N12       30.25R
PARK RAPIDS    PTCLDY    55  37  50 N9        30.16S
MAHNOMEN       CLOUDY    49  41  75 N7        30.22R
$$
MNZ006-009>011-018-025>026-280700-
   North Central Minnesota

CITY           SKY/WX    TMP DP  RH WIND       PRES   REMARKS
BAUDETTE       CLOUDY    45  41  86 NW12      30.21S
FLAG ISLAND    DRIZZLE   45  41  87 NW14      30.22R
INTL FALLS     CLOUDY    50  39  66 NW7       30.16R
6HR MIN TEMP:  43; 6HR MAX TEMP:  65;

WASKISH        CLOUDY    50  43  76 N3        30.20R
BIG FORK       PTCLDY    45  32  61 CALM      30.16R
LONGVILLE      CLEAR     52  36  54 NW6       30.15R
GRAND RAPIDS   PTCLDY    43  25  49 S3        30.14R
CRANE LAKE     PTCLDY    36  30  80 CALM      30.16S
ORR            PTCLDY    43  28  56 CALM      30.12S
COOK           PTCLDY    39  30  70 CALM      30.15R
WALKER         FAIR      53  41  63 NW9       30.16S
$$
MNZ012-019>021-037-280700-
   Northeast Minnesota

CITY           SKY/WX    TMP DP  RH WIND       PRES   REMARKS
DULUTH         PTCLDY    46  27  47 E3        30.14S
6HR MIN TEMP:  45; 6HR MAX TEMP:  67;

ELY            PTCLDY    36  28  75 CALM      30.14S
HIBBING        PTCLDY    39  28  64 CALM      30.14S
EVELETH        PTCLDY    36  32  87 CALM      30.15S
DULUTH HARBOR  CLEAR     41  34  75 CALM      30.17S
TWO HARBORS    CLEAR     37  30  75 CALM      30.14R
SILVER BAY     CLEAR     32  27  80 CALM      30.14S
GRAND MARAIS     N/A     34  27  75 NW5       30.16S WCI  30
G MARAIS ARPRT PTCLDY    30  25  80 CALM      30.15S
$$
MNZ029>031-032-039>041-046>048-054>057-064-280700-
   West Central Minnesota

CITY           SKY/WX    TMP DP  RH WIND       PRES   REMARKS
FERGUS FALLS   MOCLDY    52  37  58 N10G20    30.20S
WHEATON        PTCLDY    50  39  66 NW14      30.24R
MORRIS         CLEAR     48  39  71 NW15      30.18R
ALEXANDRIA     CLEAR     49  34  56 NW6       30.18R
ELBOW LAKE     FAIR      51  42  70 NW12      30.18R
WADENA         PTCLDY    46  30  53 NW7       30.15F
GLENWOOD       CLEAR     48  30  49 W8        30.17R
APPLETON       CLEAR     52  37  58 NW16      30.18R
BENSON         CLEAR     41  30  65 NW3       30.17R
ORTONVILLE     CLEAR     52  39  62 N16       30.20S
MADISON        CLEAR     48  36  61 NW9       30.20R
WILLMAR        FAIR      46  34  61 CALM      30.18R
$$
MNZ033>034-036-042>043-049>051-058-059-280700-
   Central Minnesota

CITY           SKY/WX    TMP DP  RH WIND       PRES   REMARKS
ST CLOUD       CLEAR     42  33  70 CALM      30.14R
6HR MIN TEMP:  42; 6HR MAX TEMP:  69;

SAUK CENTRE    FAIR      43  31  63 CALM      30.16S
PAYNESVILLE    CLEAR     38  31  78 SW6       30.16S
AITKIN         CLEAR     37  30  75 CALM      30.12S
PINE RIVER     CLEAR     46  36  66 NW5       30.18R
BRAINERD       CLEAR     40  28  62 CALM      30.14S
STAPLES        CLEAR     45  34  65 NW5       30.15R
LONG PRAIRIE   FAIR      43  36  75 S3        30.16S
LITTLE FALLS   CLEAR     41  30  65 CALM      30.14S
LITCHFIELD     CLEAR     48  37  66 CALM      30.16S
BUFFALO        PTCLDY    44  32  63 CALM      30.16R
MAPLE LAKE     PTCLDY    45  34  64 CALM      30.16R
$$
MNZ037-044-045-052-053-280700-
   East Central Minnesota

CITY           SKY/WX    TMP DP  RH WIND       PRES   REMARKS
PRINCETON      CLEAR     41  32  70 CALM      30.14R
MORA           CLEAR     37  32  81 CALM      30.16R
CAMBRIDGE      CLEAR     45  32  61 CALM      30.13R
RUSH CITY      PTCLDY    42  30  62 CALM      30.14R
MOOSE LAKE     PTCLDY    41  30  65 CALM      30.13S
HINCKLEY       FAIR      37  28  70 CALM      30.14R
CLOQUET        PTCLDY    37  27  65 CALM      30.14S
MCGREGOR       CLEAR     43  32  65 CALM      30.14S
$$
MNZ071>073-080-081-089-090-097-098-280700-
   Southwest Minnesota

CITY           SKY/WX    TMP DP  RH WIND       PRES   REMARKS
MONTEVIDEO     PTCLDY    54  21  28 NW6       30.18R
GRANITE FALLS  PTCLDY    40  21  45 CALM      30.19R
CANBY          CLEAR     48  38  66 NW10      30.22R
MARSHALL       PTCLDY    45  25  45 W6        30.18R
REDWOOD FALLS  PTCLDY    53  25  33 W3        30.17R
OLIVIA         PTCLDY    45  25  45 CALM      30.16S
PIPESTONE      PTCLDY    48  27  43 CALM      30.20R
WINDOM         PTCLDY    43  27  52 CALM      30.18S
WORTHINGTON    CLEAR     46  23  39 W3        30.20R
JACKSON        CLEAR     45  27  49 CALM      30.19S
TRACY          PTCLDY    49  25  38 SW5       30.19R
SLAYTON        PTCLDY    42  26  52 CALM      30.20S
$$
MNZ065>067-074>077-082>085-091>093-280700-
   South Central Minnesota

CITY           SKY/WX    TMP DP  RH WIND       PRES   REMARKS
MANKATO        PTCLDY    50  25  37 W6        30.17R
NEW ULM        PTCLDY    46  21  36 CALM      30.16S
ST JAMES       PTCLDY    46  25  42 SW8       30.18S
FAIRMONT       CLEAR     45  30  57 W6        30.17S
GLENCOE        PTCLDY    44  28  53 CALM      30.15S
FARIBAULT      CLEAR     41  36  81 CALM      30.16R
OWATONNA       CLEAR     43  27  52 CALM      30.16S
WASECA         CLEAR     43  28  56 CALM      30.17S
ALBERT LEA     CLEAR     45  30  57 CALM      30.16S
$$
MNZ078>079-086>088-094>096-280700-
   Southeast Minnesota

CITY           SKY/WX    TMP DP  RH WIND       PRES   REMARKS
ROCHESTER      CLEAR     51  27  39 NW7       30.16R
6HR MIN TEMP:  51; 6HR MAX TEMP:  63;

RED WING       CLEAR     41  32  70 CALM      30.15S
STANTON        CLEAR     38  29  69 S5        30.14R
DODGE CENTER   CLEAR     45  32  61 W5        30.16R
WINONA         CLEAR     46  37  71 CALM      30.14S
AUSTIN         CLEAR     45  34  65 CALM      30.15S
PRESTON        CLEAR     50  28  43 NW5       30.15R
$$
ABBREVIATIONS USED IN REMARKS
   TC - TEMPERATURES IN CELSIUS
  WCI - WIND CHILL INDEX
   HX - HEAT INDEX
  VSB - VISIBILITY
$$



USA.gov is the U.S. government's official web portal to all federal, state and local government web resources and services.